Location: Eimen
(51.8766°N, 9.7806°E)
Time: 08:12:00
(UTC+00:00)

Envisat - Pass Details

Date: 21 August 2024
Orbit: 762 x 764 km, 98.3° (Epoch: 08 September)

Event Time Altitude Azimuth Distance (km) Brightness Sun altitude
Rises 03:10:21 0° 12° (NNE) 3,241 7.0 -9.8°
Reaches altitude 10° 03:12:41 10° 9° (N) 2,310 6.1 -9.5°
Maximum altitude 03:17:42 62° 290° (WNW) 863 3.1 -8.8°
Drops below altitude 10° 03:22:40 10° 211° (SSW) 2,293 4.9 -8.2°
Enters shadow 03:23:32 - 210° (SSW) 2,634 5.2 -8.0°
